Regional Weather Roundup
Issued by NWS

Home | Current Version | Previous Version | Graphics & Text | Print | Product List | Glossary On
Versions: 1 2 3 4 5 6 7 8 9 10 11 12 13 14 15 16 17 18 19 20 21 22 23 24 25 26 27 28 29 30 31 32 33 34 35 36 37 38 39 40 41 42 43 44 45 46 47 48 49 50
514
ASUS43 KDTX 180801
RWRMI
MICHIGAN HOURLY REGIONAL WEATHER ROUNDUP
NATIONAL WEATHER SERVICE DETROIT/PONTIAC MI
400 AM EDT WED OCT 18 2017

NOTE: "FAIR" INDICATES FEW OR NO CLOUDS BELOW 12,000 FEET WITH NO
SIGNIFICANT WEATHER AND/OR OBSTRUCTION TO VISIBILITY.

MIZ047>049-052>055-059>063-066>070-074>076-081>083-180900-
SOUTHEAST LOWER MICHIGAN

CITY           SKY/WX    TMP DP  RH WIND       PRES   REMARKS
ADRIAN         CLEAR     45  39  79 CALM      30.23S
ALMA           CLEAR     49  40  71 SW9       30.15S
ANN ARBOR      CLEAR     40  39  97 S5        30.20S
BAD AXE        CLEAR     52  41  66 SW6       30.16R
CARO           CLEAR     51  40  65 S7        30.16R
DETROIT CITY   PTCLDY    51  41  68 SW8       30.22R
DETROIT        CLEAR     47  41  80 SW5       30.22R
FLINT          CLEAR     51  40  65 SW7       30.18S
GROSSE ILE     CLEAR     52  41  64 SW7       30.21S
HILLSDALE      CLEAR     48  37  66 SW5       30.21S
HOWELL         CLEAR     49  40  71 SW5       30.19S

CITY           SKY/WX    TMP DP  RH WIND       PRES   REMARKS
JACKSON        CLEAR     51  39  63 S7        30.20S
LAMBERTVILLE   CLEAR     47  40  76 CALM      30.23S
LANSING        CLEAR     52  39  61 SW10      30.18S
LAPEER         FAIR      50  40  69 CALM      30.19S
MASON          CLEAR     53  40  62 CALM      30.19S
MONROE         CLEAR     48  39  71 SW6       30.21F
MT. CLEMENS    CLEAR     50  42  73 SW6       30.19R
PONTIAC        CLEAR     50  41  71 CALM      30.19S
PORT HOPE        N/A     55  42  61 SW9       30.12S
PORT HURON     CLEAR     52  41  66 CALM      30.20R
TRI CITIES     CLEAR     52  43  71 SW8       30.16R
MIDLAND        FAIR      52  42  69 CALM      30.14R
TROY           CLEAR     50  40  70 SW6       30.22S
SAGINAW HB     CLEAR     50  41  71 S7        30.15S
$$
MIZ043>046-050>051-056>058-064>065-071>073-077>080-180900-
SOUTHWEST LOWER MICHIGAN

CITY           SKY/WX    TMP DP  RH WIND       PRES   REMARKS
BATTLE CREEK   CLEAR     50  40  68 CALM      30.20R
BENTON HARBOR  CLEAR     51  39  63 S9        30.18S
BIG RAPIDS     CLEAR     54  46  73 SW7       30.12S
COLDWATER      CLEAR     50  38  65 SW6       30.21R
FREMONT        FAIR      53  49  84 S6        30.12S
HOLLAND        CLEAR     50  42  74 S8        30.16S
GRAND RAPIDS   CLEAR     52  41  66 S9        30.17R
IONIA          FAIR      51  39  64 SW8       30.16R
KALAMAZOO      CLEAR     48  39  71 CALM      30.20R
LUDINGTON      CLEAR     59  48  67 SW14      30.09S
MARSHALL       CLEAR     49  39  68 SW3       30.20S
MOUNT PLEASANT CLEAR     55  42  62 SW5       30.13R
MUSKEGON       CLEAR     60  49  66 SW15      30.14S
SOUTH HAVEN    CLEAR     52  40  62 S6        30.18S
$$
MIZ016>042-180900-
NORTHERN LOWER MICHIGAN

CITY           SKY/WX    TMP DP  RH WIND       PRES   REMARKS
ALPENA         CLEAR     39  38  96 CALM      30.08
BEAVER ISLAND  CLEAR     57  54  87 S8        30.01S
BELLAIRE       CLEAR     45  44  96 CALM      30.06S FOG
CADILLAC       CLEAR     55  47  73 SW9       30.09F
CHARLEVOIX     CLEAR     56  49  77 S8        30.06S
FRANKFORT      CLEAR     61  53  73 S12G21    30.06S
GAYLORD        CLEAR     48  43  82 SW7       30.07S
GRAYLING       CLEAR     38  35  90 CALM      30.09F
HARBOR SPRINGS CLEAR     50  47  89 S3        30.04S
HOUGHTON LAKE  CLEAR     51  45  79 S7        30.11S
MANISTEE       CLEAR     45  44  97 E5        30.07S
OSCODA         CLEAR     48  43  82 SW7       30.10S
PELLSTON       CLEAR     41  40  96 CALM      30.04S
ROGERS CITY    CLEAR     49  45  85 SW8       30.07S
TRAVERSE CITY  CLEAR     57  46  66 SW5       30.05
$$
MIZ007>008-015-180900-
EASTERN UPPER MICHIGAN

CITY           SKY/WX    TMP DP  RH WIND       PRES   REMARKS
KINROSS        CLEAR     45  45 100 SE6       30.02S FOG
MACKINAC ISLAN CLEAR     54  47  77 S10       30.02S
NEWBERRY       CLOUDY    51  50  97 S7        29.98F
S. S. MARIE    CLEAR     44  42  93 E5        30.02S
MUNISING         N/A     53  51  93 S8        29.94F
$$
MIZ004>006-011>014-085-180900-
CENTRAL UPPER MICHIGAN

CITY           SKY/WX    TMP DP  RH WIND       PRES   REMARKS
MANISTIQUE     CLEAR     55  50  82 S5        29.98S
ESCANABA       CLEAR     51  48  89 SW6       29.96F
MENOMINEE      CLEAR     54  45  71 SW8       29.99F
SAWYER-GWINN   CLEAR     46  44  93 S9        29.94S
$$
MIZ001>003-009>011-084-180900-
WESTERN UPPER MICHIGAN

CITY           SKY/WX    TMP DP  RH WIND       PRES   REMARKS
IRON MOUNTAIN  CLEAR     47  42  83 SE5       29.94F
HOUGHTON       CLEAR     50  42  74 CALM      29.85F
COPPER HARBOR    N/A     56  44  64 SW8       29.84F
IRONWOOD       CLEAR     57  44  62 S12G20    29.86F
$$

ABBREVIATIONS USED IN REMARKS
   TC - TEMPERATURE IN CELSIUS
  WCI - WIND CHILL INDEX
   HX - HEAT INDEX
  VSB - VISIBILITY





USA.gov is the U.S. government's official web portal to all federal, state and local government web resources and services.